Location: Bonneil
(49.0074°N, 3.3492°E)
Time: 23:11:09
(UTC+00:00)

Daily predictions for brighter satellites

Satellite Brightness Start Highest point End
(mag) Time Altitude Azimuth Time Altitude Azimuth Time Altitude Azimuth
Cosmos 2322 Rocket 3.6 20:28:52 10° NW 20:33:59 35° WSW 20:39:05 10° S
Meteor 1-16 Rocket 4.4 20:29:17 10° N 20:35:14 69° ENE 20:41:04 10° SSE
Cosmos 1570 Rocket 4.4 20:31:22 10° NNW 20:36:39 57° ENE 20:41:54 10° SE
Cosmos 2297 Rocket 3.7 20:38:53 10° SE 20:42:30 18° E 20:46:07 10° ENE
Aureole 3 4.0 20:39:02 10° S 20:43:37 72° E 20:49:25 10° NNE
Cosmos 1707 Rocket 3.8 20:39:30 10° SSW 20:43:56 79° WNW 20:48:22 10° N
Cosmos 1356 Rocket 4.0 20:39:53 10° SSW 20:44:04 63° WNW 20:48:14 10° N
Cosmos 1758 4.4 20:41:08 10° NNW 20:44:53 44° W 20:48:39 10° SSW
Cosmos 2219 Rocket 2.6 20:43:40 10° NNW 20:49:17 62° WSW 20:54:52 10° SSE
ATLAS CENTAUR R/B 4.1 20:49:51 10° W 20:52:40 22° NW 20:55:36 10° NNE
BREEZE-M DEB (TANK) 3.7 20:48:55 10° WSW 20:52:46 80° SSE 21:07:22 10° ENE
ATLAS 2AS CENTAUR R/B 3.8 20:48:26 10° NW 20:54:27 35° WSW 21:00:18 10° S
Landsat 4 3.7 20:52:06 10° SSE 20:55:27 56° ENE 20:58:49 10° N
Cosmos 1733 Rocket 4.0 20:52:58 10° NNW 20:57:14 49° W 21:01:30 10° SSW
NOSS 5 (C) 4.4 20:56:05 10° NW 20:59:14 66° SW 21:02:10 12° SSE
Cosmos 1455 2.1 20:56:08 10° N 20:59:38 63° ENE 21:02:59 11° SSE
Spot 2 Rocket 3.5 20:57:11 10° SSE 21:02:17 89° NE 21:07:25 10° NNW
Cosmos 1408 4.1 21:01:32 11° ESE 21:03:05 15° E 21:04:55 10° NE
SPOT 3 Rocket 3.6 20:59:07 10° SSE 21:04:16 81° ENE 21:09:29 10° NNW
Resurs 01 Rocket 4.4 21:06:55 10° WSW 21:08:36 12° W 21:10:17 10° WNW
Iridium 51 4.4 21:06:10 10° S 21:10:25 82° E 21:14:26 10° N
SeaSat 1 2.5 21:08:35 12° SSE 21:13:11 86° ENE 21:18:08 10° NNW
Cosmos 2360 Rocket 4.3 21:14:29 10° NW 21:18:34 21° W 21:22:38 10° SSW
Cosmos 158 Rocket 4.0 21:13:39 10° NNW 21:18:57 87° ENE 21:23:25 14° SSE
Cosmos 1953 2.4 21:15:15 10° NNW 21:19:03 70° W 21:22:42 11° S
Cosmos 1908 Rocket 3.5 21:14:57 10° N 21:19:19 85° W 21:23:22 12° S
COSMOS 2428 2.9 21:14:12 10° NNW 21:19:54 74° WSW 21:25:01 13° SSE
Cosmos 2208 Rocket 4.0 21:15:20 10° NNW 21:20:33 87° WSW 21:25:05 14° SSE
NOSS 8 (H) 4.4 21:16:54 10° SSW 21:20:44 60° SE 21:23:47 10° NE
Cosmos 1782 Rocket 3.8 21:18:58 10° N 21:23:15 57° ENE 21:26:41 15° SSE
CENTAUR R/B 3.7 21:23:46 14° SE 21:26:53 21° ESE 21:31:38 10° ENE
Ariane Rocket 3.4 21:22:42 10° S 21:27:43 60° WSW 21:32:46 10° NNW
Cosmos 1300 Rocket 3.8 21:24:22 10° N 21:28:36 54° ENE 21:31:51 16° SSE
EXPRESS MD2 1.8 21:26:55 10° WNW 21:29:30 86° S 21:30:59 18° ESE
Cosmos 2084 Rocket 3.7 21:27:45 10° SSW 21:31:51 44° SE 21:35:50 10° NE
Cosmos 1486 Rocket 4.0 21:32:23 10° S 21:37:30 63° ESE 21:42:40 10° NNE
Cosmos 1315 Rocket 4.0 21:35:09 10° SW 21:38:57 41° WNW 21:42:46 10° N
Cosmos 405 Rocket 4.1 21:38:20 10° N 21:41:35 27° ENE 21:43:50 16° ESE
GP-B 3.2 21:39:30 10° N 21:43:55 63° E 21:47:06 18° SSE
MetOp-A 4.1 21:40:03 16° SSE 21:44:22 87° WSW 21:49:33 10° NNW
BREEZE-M DEB (TANK) 3.3 21:39:26 10° W 21:44:38 44° N 21:46:53 10° ENE
ARIANE 5 R/B 3.5 21:41:49 16° SE 21:44:49 38° ENE 21:48:53 10° N
SJ 16-02 3.8 21:42:45 10° WSW 21:46:12 23° NW 21:49:41 10° N
NOSS 0 Rocket 4.1 21:40:00 10° NNW 21:46:13 70° WSW 21:51:08 17° SSE
BlueWalker 3 2.8 21:44:17 10° W 21:47:57 50° NNW 21:51:37 10° ENE
Cosmos 371 Rocket 3.2 21:44:03 10° SSW 21:48:49 70° ESE 21:53:38 10° NNE
SL-4 R/B 3.3 21:46:18 10° W 21:49:35 26° SW 21:51:27 18° S
USA 234 3.3 21:43:57 10° ENE 21:50:22 55° SE 21:56:45 10° SW
Terra 3.4 21:48:59 10° SSW 21:53:01 28° W 21:57:06 10° NW
Spot 1 4.4 21:50:48 10° NNE 21:55:32 81° WNW 22:00:29 10° SSW
NOSS 8 (A) 4.5 21:55:44 10° NW 21:58:40 62° NE 22:00:43 22° ESE
Cosmos 1354 Rocket 4.4 21:55:11 17° S 21:58:56 47° ESE 22:04:00 10° NNE
H-2A R/B 3.8 21:56:27 15° ESE 21:59:11 29° ENE 22:02:47 10° N
SL-16 R/B 3.3 21:54:00 10° NNW 21:59:17 37° NE 22:04:11 12° ESE
Landsat 5 3.7 21:56:54 10° N 22:01:02 70° WNW 22:05:08 11° SSW
Cosmos 2237 Rocket 2.2 21:55:20 10° NNW 22:01:02 84° WSW 22:05:00 20° SSE
COSMOS 2455 3.0 21:58:00 10° SW 22:04:02 78° NW 22:10:08 10° NNE
Cosmos 1242 Rocket 4.3 22:02:44 10° WSW 22:04:50 20° WNW 22:06:58 10° NNW
Cosmos 1745 Rocket 4.1 21:58:43 11° S 22:04:51 85° W 22:11:16 10° N
USA 281 3.6 22:00:04 15° SE 22:05:26 59° ENE 22:11:54 10° NNW
CZ-4C R/B 2.0 22:01:40 10° SW 22:06:14 79° NW 22:12:04 10° NE
Cosmos 2227 Rocket 2.7 22:03:20 19° SSE 22:06:53 41° ESE 22:12:10 10° NE
Nadezhda 1 Rocket 4.3 22:01:49 10° NNW 22:08:00 64° W 22:13:03 15° S
Meteor 2-5 Rocket 4.0 22:05:17 19° SSE 22:09:25 58° E 22:15:04 10° NNE
Cosmos 2151 Rocket 4.4 22:07:34 10° N 22:11:43 40° ENE 22:14:08 21° SE
Cosmos 773 Rocket 4.3 22:09:35 10° NNW 22:14:41 60° WSW 22:18:03 21° S
Cosmos 1980 3.9 22:09:54 10° NNW 22:15:31 64° WSW 22:19:14 22° S
Okean 2 Rocket 3.9 22:12:10 10° N 22:16:26 41° ENE 22:18:55 22° SE
Cosmos 304 Rocket 3.8 22:13:19 10° SSW 22:18:00 79° WNW 22:22:48 10° NNE
Cosmos 2297 Rocket 2.2 22:20:09 10° SSW 22:25:48 83° WNW 22:31:30 10° NNE
ALOS 2 3.6 22:25:43 19° ESE 22:28:15 37° ENE 22:32:18 10° N
MINOTAUR 4 R/B 3.7 22:28:03 10° NNE 22:30:54 52° ESE 22:31:27 43° SE
CZ-2C R/B 3.6 22:29:49 10° NNE 22:34:16 88° W 22:37:07 22° SSW
Cosmos 1461 4.2 22:34:55 21° ESE 22:34:56 21° ESE 22:37:53 10° ENE
Cosmos 2098 Rocket 3.9 22:28:30 10° N 22:35:04 87° W 22:38:52 24° S
Cosmos 1703 3.4 22:33:06 23° SSW 22:35:13 62° WNW 22:38:53 10° N
Cosmos 1408 3.9 22:33:29 14° SW 22:35:32 27° WNW 22:38:10 10° NNW
NOSS 3-2 (A) 3.8 22:33:41 25° SSE 22:36:01 37° ESE 22:41:30 10° NE
Cosmos 2181 Rocket 4.0 22:31:45 10° N 22:37:56 77° E 22:41:46 24° SSE
Cosmos 2219 3.7 22:37:54 25° SSE 22:40:36 41° ESE 22:45:51 10° NE
Cosmos 1777 Rocket 4.2 22:39:06 13° SSW 22:43:51 71° WNW 22:49:09 10° NNE
H-2A R/B 4.0 22:41:55 10° ENE 22:44:05 14° E 22:45:13 13° ESE
Cosmos 332 Rocket 3.7 22:41:57 22° SSW 22:45:11 84° ESE 22:50:06 10° NNE
Cosmos 1825 2.3 22:44:58 37° SE 22:45:51 49° E 22:49:11 10° NNE
BREEZE-M DEB (TANK) 3.8 22:42:50 10° W 22:46:08 89° S 22:56:37 10° ESE
Cosmos 2263 Rocket 3.0 22:44:09 24° SSE 22:46:23 33° ESE 22:51:19 10° NE
Meteor 1-24 Rocket 3.8 22:42:45 19° SSW 22:46:58 75° WNW 22:52:29 10° N
NOSS 3-2 (C) 4.4 22:46:16 20° SE 22:47:33 21° ESE 22:51:53 10° ENE
Cosmos 2221 Rocket 3.7 22:46:44 30° SSE 22:48:44 61° E 22:53:06 10° NNE
Sich 1 Rocket 3.5 22:49:39 10° N 22:54:03 87° W 22:56:03 32° S
Okean 1 Rocket 3.2 22:51:10 10° N 22:55:32 64° ENE 22:57:31 31° SSE
Cosmos 1538 Rocket 4.0 22:50:41 10° NNW 22:55:56 82° ENE 22:58:51 27° SSE
PSLV R/B 4.0 22:52:40 10° N 22:56:38 69° WNW 22:58:45 26° SSW
Cosmos 1263 4.1 22:55:01 10° N 22:58:09 75° E 22:58:45 52° SSE
Cosmos 1818 3.7 22:55:21 10° NW 23:00:51 73° NE 23:04:38 20° SE
Cosmos 1892 2.4 23:03:07 40° SSW 23:04:17 84° W 23:07:50 10° N
Spot 4 3.9 23:03:31 30° S 23:05:53 73° WSW 23:10:44 10° NNW
Cosmos 1025 Rocket 3.4 23:12:05 33° SSE 23:13:40 51° E 23:17:50 10° NNE
Nadezhda 3 Rocket 4.1 23:07:47 10° N 23:14:02 70° ENE 23:17:41 26° SSE
Cosmos 967 Rocket 4.5 23:11:00 20° SSW 23:15:44 75° ESE 23:22:12 10° NE
CENTAUR R/B 2.5 23:10:49 11° SW 23:16:24 84° NW 23:23:40 10° NE
Cosmos 405 Rocket 4.2 23:13:27 10° NW 23:16:38 26° W 23:18:05 20° SW
Cosmos 1975 Rocket 4.3 23:15:39 23° SE 23:17:17 30° E 23:21:08 10° NNE
ARIANE 5 R/B 4.1 23:19:17 18° SW 23:21:19 26° W 23:24:59 10° NW
Cosmos 923 Rocket 4.2 23:17:42 10° NNW 23:22:57 64° ENE 23:26:02 24° SE
Cosmos 1455 Rocket 3.5 23:20:20 10° N 23:24:44 56° ENE 23:26:44 30° SE
BlueWalker 3 3.0 23:22:55 10° WNW 23:26:33 45° N 23:30:10 10° E
Cosmos 1328 3.6 23:25:24 40° S 23:26:44 88° W 23:30:39 10° N
Cosmos 1898 Rocket 3.7 23:25:20 31° S 23:27:35 56° ESE 23:32:38 10° NNE
Cosmos 1378 Rocket 4.4 23:25:05 21° SW 23:27:35 43° WNW 23:31:50 10° N
Aureole 1 Rocket 3.0 23:26:55 37° S 23:28:29 73° ESE 23:33:35 10° NNE
Cosmos 2184 Rocket 4.1 23:26:26 25° SSW 23:30:22 82° W 23:36:48 10° N
Meteor 1-21 Rocket 4.4 23:27:44 29° S 23:30:39 64° E 23:36:13 10° NNE
Cosmos 1674 Rocket 4.3 23:29:17 24° SW 23:31:35 46° WNW 23:35:46 10° N
USA 234 3.7 23:27:01 10° NE 23:33:30 65° NNW 23:39:57 10° WSW
H-2A R/B 3.6 23:32:26 25° SW 23:34:02 32° W 23:37:49 10° NNW
SL-16 R/B 2.7 23:38:07 10° NW 23:43:31 45° WSW 23:46:02 28° SSW
Cosmos 2237 Rocket 4.2 23:41:14 10° WNW 23:44:11 15° W 23:46:48 11° SW
Cosmos 2154 Rocket 4.1 23:45:18 26° SSW 23:49:05 73° W 23:55:26 10° N
Cosmos 1603 4.4 23:43:30 10° NNW 23:49:07 51° NE 23:54:09 13° SE
Cosmos 1943 3.3 23:44:30 10° NNW 23:50:09 75° ENE 23:53:53 22° SE
USA 281 4.1 23:46:56 22° SSW 23:50:14 33° WSW 23:56:08 10° NW
Cosmos 2227 Rocket 3.4 23:45:39 10° WSW 23:50:57 40° NW 23:56:18 10° NNE
Cosmos 1867 4.4 23:50:22 27° SSE 23:52:17 36° ESE 23:57:14 10° NE
Meteor 2-1 Rocket 4.4 23:47:16 10° N 23:53:10 71° ENE 23:56:34 26° SSE
PSLV R/B 3.5 23:49:00 10° N 23:53:12 77° WNW 23:54:55 35° SSW
Cosmos 2082 3.7 23:50:39 25° SSW 23:54:03 85° WNW 23:59:42 10° NNE
